Find Starlink 4076

NORAD ID: 52667 Int'l Des: 2022-053 Owner: SPXS Country: US Constellation: starlink operational
LEOCIRCULAR

リアルタイム位置

3D地球を読み込み中...

Starlink 4076について

説明を読み込み中...

次回通過

Passes for default location (London). Set your location on the main map for personalized predictions.

高度履歴

Loading altitude history...

軌道要素

1 52667U 22053M 26121.71639720 -.00000009 00000-0 17515-4 0 9998
2 52667 53.2174 276.0729 0001331 89.2341 270.8804 15.08843760219056
Epoch: May 1, 2026 • Age: 10 hours

現在のステータス

高度 543.8 km
速度 7.60 km/s
衛星直下点 45.86°N, 135.42°E
打ち上げ日 May 18, 2022
運用期間 3.9 years
タイプ internet

技術仕様

分類 Payload
質量 297.00 kg
乾燥質量 275.00 kg
総質量 297.00 kg
長さ 0.20 m
直径 2.80 m
スパン 9.00 m
形状 Box + pan
製造者 SPXS
バスタイプ Starlink
フェーズステータス In Orbit
所有者/国 SPXS/US

Most Searched